Location: DARK SKY Beskydy - Park tmavé oblohy, www.darkskybeskydy.cz
(49.4926°N, 18.5016°E)
Time: 03:58:41
(UTC+02:00)

A-11 Canister half - Pass Details

Date: 22 February 2024
Orbit: 1513 x 1686 km, 47.2° (Epoch: 24 April)

Event Time Altitude Azimuth Distance (km) Brightness Sun altitude
Rises 04:38:36 0° 257° (WSW) 4,927 - -21.0°
Reaches altitude 10° 04:41:48 10° 257° (WSW) 3,928 - -20.5°
Exits shadow 04:45:40 28° 254° (WSW) 2,770 9.7 -19.9°
Maximum altitude 04:51:51 78° 173° (S) 1,672 9.1 -18.9°
Drops below altitude 10° 05:01:35 10° 89° (E) 3,806 12.4 -17.3°
Sets 05:04:38 0° 89° (E) 4,769 13.4 -16.8°
